(54) Alexandra
ephemeris date magn radius delta ra dec elong phase
Today14 Jul 202614.03.059 AU3.799 AU09h57m+07°46'37.7°11.7°
Opposition1 May 202711.42.505 AU1.533 AU14h04m-33°28'160.4°7.7°
(54) Alexandra - 2026-07-14
astro.vanbuitenen.nl


 
-1 year
-1 month
-1 day
Now
+1 day
+1 month
+1 year

The interactive orbit chart above shows the body's path through the solar system and its position at the given date. Green and blue lines are shown perpendicular to the ecliptic plane: Green if the path is above the ecliptic plane, blue if it is below. (Left-click and drag to rotate the view; Right-click and drag to move the view; Use scroll wheel to zoom in our out.)

The orbital elements of Alexandra are:

            e (Eccentricity)                : 0.1991502
            a (Semimajor axis)              : 2.7102403
            i (Inclination)                 : 11.83626
            Ω (Longitude of ascending node) : 313.01339
            ω (Argument of perihelion)      : 346.35813
            M (Mean anomaly)                : 230.77822
            Epoch                           : 2026 Jun 09

            L (Longitude of perihelion)     : 299.65107
            B (Latitude of perihelion)      : -2.77288
            P (Orbital period in years)     : 4.46            
        

The light curve chart below shows the estimated development of the minor planet's magnitude.


The all-sky chart below shows the path of the minor planet over the same period as the light curve. The current position is marked yellow.





The following chart shows the path of the minor planet in the next few days. The field of view is optimized for (~10x50) binoculars and finderscopes.




Ephemerides:
Date       Time       RA (2000)    DEC (2000)    delta   radius  elong  phase   PA    magn
2026-07-14 00:00 UT   09 57 07.9   +07 46 13     3.799    3.059   37.7   11.7   116   14.0 
2026-07-14 00:29 UT   09 57 09.4   +07 46 03     3.800    3.059   37.7   11.7   116   14.0 
2026-07-15 00:00 UT   09 58 21.9   +07 38 34     3.806    3.057   37.1   11.6   116   14.0 
2026-07-16 00:00 UT   09 59 36.1   +07 30 53     3.813    3.056   36.4   11.4   116   14.0 
2026-07-17 00:00 UT   10 00 50.5   +07 23 08     3.820    3.054   35.8   11.2   116   14.0 
2026-07-18 00:00 UT   10 02 05.2   +07 15 20     3.826    3.053   35.2   11.1   117   14.0 
2026-07-19 00:00 UT   10 03 20.1   +07 07 29     3.833    3.052   34.6   10.9   117   14.0 
2026-07-20 00:00 UT   10 04 35.2   +06 59 36     3.839    3.050   34.0   10.7   117   13.9 
2026-07-21 00:00 UT   10 05 50.5   +06 51 39     3.845    3.049   33.4   10.6   117   13.9 
2026-07-22 00:00 UT   10 07 06.0   +06 43 39     3.851    3.047   32.8   10.4   118   13.9 
2026-07-23 00:00 UT   10 08 21.7   +06 35 37     3.857    3.046   32.2   10.2   118   13.9 
2026-07-24 00:00 UT   10 09 37.6   +06 27 31     3.863    3.044   31.6   10.1   118   13.9 
2026-07-25 00:00 UT   10 10 53.7   +06 19 23     3.868    3.043   31.0    9.9   118   13.9 
2026-07-26 00:00 UT   10 12 09.9   +06 11 12     3.874    3.041   30.4    9.7   119   13.9 
2026-07-27 00:00 UT   10 13 26.4   +06 02 57     3.879    3.040   29.8    9.6   119   13.9 
2026-07-28 00:00 UT   10 14 43.0   +05 54 40     3.884    3.038   29.2    9.4   119   13.9 
2026-07-29 00:00 UT   10 15 59.8   +05 46 21     3.889    3.037   28.6    9.2   120   13.9 
2026-07-30 00:00 UT   10 17 16.8   +05 37 58     3.894    3.036   28.0    9.0   120   13.9 
2026-07-31 00:00 UT   10 18 33.9   +05 29 33     3.899    3.034   27.4    8.9   120   13.9 
2026-08-01 00:00 UT   10 19 51.2   +05 21 05     3.904    3.033   26.8    8.7   121   13.9 
2026-08-02 00:00 UT   10 21 08.7   +05 12 34     3.908    3.031   26.2    8.5   121   13.9 
2026-08-03 00:00 UT   10 22 26.3   +05 03 60     3.913    3.030   25.6    8.3   121   13.9 
2026-08-04 00:00 UT   10 23 44.1   +04 55 24     3.917    3.028   25.0    8.2   122   13.9 
2026-08-05 00:00 UT   10 25 02.1   +04 46 44     3.921    3.027   24.5    8.0   122   13.9 
2026-08-06 00:00 UT   10 26 20.2   +04 38 03     3.925    3.025   23.9    7.8   122   13.9 
2026-08-07 00:00 UT   10 27 38.4   +04 29 18     3.928    3.024   23.3    7.6   123   13.8 


    Terminology:
            
    delta:  distance between minor planet and earth in AU
    radius: distance between minor planet and sun in AU
    magn:   magnitude (brightness) estimate    
    ra:     right ascension in hours (24h = 360deg)
    dec:    declination in degrees
    elong:  elongation in degrees (angle sun-earth-minor planet)    
    phase:  phase angle in degrees (angle sun-minor planet-earth)        
    AU:     Astronomical Unit (mean distance between earth and sun: 149597870.7 km
    

Orbital elements provided by the MPC (Minor Planet Center).
Calculations by a modified version of AAPlus, a C# implementation of the AA+ project by PJ Naughter from the algorithms presented in the book "Astronomical Algorithms" by Jean Meeus.
NGC2000 dso catalog and star labels from VizieR as provided by the Strasbourg astronomical Data Center.
Tycho2 catalog from the ESO archive.